Regional Weather Roundup
Issued by NWS

Home | Current Version | Previous Version | Text Only | Print | Product List | Glossary On
Versions: 1 2 3 4 5 6 7 8 9 10 11 12 13 14 15 16 17 18 19 20 21 22 23 24 25 26 27 28 29 30 31 32 33 34 35 36 37 38 39 40 41 42 43 44 45 46 47 48 49 50
000
ASUS45 KTFX 151110
RWRMT
Montana Regional Weather Roundup
National Weather Service Great Falls MT
400 AM MST FRI NOV 15 2019

NOTE: "FAIR" indicates few or no clouds below 12,000 feet with no
significant weather and/or obstructions to visibility.

MTZ001>007-043-151200-
West of the divide

CITY           SKY/WX    TMP DP  RH WIND       PRES   REMARKS
Kalispell      CLOUDY    33  31  92 CALM      30.09F FOG
Missoula       CLOUDY    34  30  85 E6        30.11F WCI  29
Butte          FAIR      27  23  85 CALM      30.10F
Anaconda         N/A     27  25  93 SW3       30.07F
Hamilton       FOG       30  30 100 CALM      30.10F VSB 1/4
Mullan Pass    FAIR      37  29  72 S5        30.03F
Plains           N/A     38  30  73 CALM      30.09F
Ronan            N/A     36  34  93 CALM      30.09F
Thompson Falls   N/A     38  34  85 E3        30.13F
$$

MTZ008-052>055-151200-
Southwest Montana

CITY           SKY/WX    TMP DP  RH WIND       PRES   REMARKS
Bozeman        FAIR      25  21  85 CALM      30.08F
Dillon         FAIR      36  25  64 S10       30.08F WCI  28
Ennis          CLOUDY    37  25  60 SE8       30.13F WCI  31
Three Forks      N/A     22  18  85 CALM      30.05F
Twin Bridges     N/A     29  17  60 W2        30.07F
W Yellowstone  MOCLDY    16  16 100 CALM      30.19F
$$

MTZ009-010-012-014-046-048-049-054-151200-
East Slopes and Central Montana

CITY           SKY/WX    TMP DP  RH WIND       PRES   REMARKS
Cut Bank       CLOUDY    46  31  55 W21       29.89S
Great Falls    FAIR      43  23  45 S13       29.93F
Helena         FAIR      29  25  85 CALM      30.06F
Malmstrom AFB  MOCLDY    41  25  53 SW14      29.94F
Augusta        MOCLDY    47  26  44 W9        29.94S
Bowmans Corner MOCLDY    41  26  56 S22       29.95F
Choteau          N/A     45  25  45 SW6       29.91F
Fairfield      MOCLDY    42  26  52 SW15      29.92F
Power          MOCLDY    36  25  64 S8        29.92F WCI  30
Raynesford     MOCLDY    49  18  29 S16       29.95F
Ulm            MOCLDY    41  26  55 S6        29.95F
White Sulphur    N/A     28  21  74 CALM      30.03S
$$

MTZ011-013-016-021-045-047-050-051-151200-
North Central Montana

CITY           SKY/WX    TMP DP  RH WIND       PRES   REMARKS
Havre          FAIR      22  20  92 E6        29.92F WCI  14
Lewistown      FAIR      31  21  66 E6        29.97F WCI  25
Chinook          N/A     21  21 100 CALM      29.95F VSB 1/4
Denton         MOCLDY    32  23  69 S8        29.92F WCI  25
Fort Benton      N/A     34  27  75 CALM      29.94F
Geyser         FAIR      45  19  35 W20       29.94F
Grass Range    MOCLDY    38  23  55 W9        29.93F WCI  31
Judith Gap     MOCLDY    40  14  33 SW5       29.97F
N Bar Ranch    FAIR      36  18  48 W7        29.99F WCI  30
Roy            FAIR      41  19  41 W7        29.94F
Stanford       FAIR      37  20  50 SE3       29.95F
Winifred       FAIR      45  17  32 S5        29.94F
$$

MTZ017>020-022>027-061-062-151200-
Northeast Montana

CITY           SKY/WX    TMP DP  RH WIND       PRES   REMARKS
Glasgow        FAIR      24  21  88 SE8       29.95F WCI  15
Circle           N/A     23  23 100 SW6       29.97  WCI  16
Culbertson       N/A     21  21 100 NE5       30.00F
Glendive       FAIR      26  25  96 SW6       30.01F WCI  19
Jordan           N/A     25  20  81 CALM      29.96F
Malta          FOG       21  21 100 CALM      29.94F VSB 0
Poplar           N/A     21  19  93 E3        30.00F
Sidney         FOG       19  18  93 CALM      30.02F VSB 1
Wolf Point     FAIR      23  20  88 E6        30.00F WCI  16
$$

MTZ028>42-056>058-151200-
Southcentral and southeast Montana

CITY           SKY/WX    TMP DP  RH WIND       PRES   REMARKS
Baker          FAIR      27  24  89 SE7       30.03F WCI  19
Big Timber     CLEAR     46  25  42 W20G26    30.01F
Billings       MOCLDY    36  28  73 S8        29.99F WCI  30
Forsyth          N/A     28  28 100 CALM      30.01S
Harlowton      MOCLDY    41  21  44 W13       29.99F
Laurel           N/A     43  28  56 SW13      30.00F
Livingston     FAIR      37  23  56 W10G23    30.04F WCI  30
Miles City     FAIR      31  28  89 S12       30.00F WCI  22
$$

Regional Reports...Dakotas/MN

CITY           SKY/WX    TMP DP  RH WIND       PRES   REMARKS
Williston      FAIR      27  25  92 SE9       30.01F WCI  18
Minot          FOG       32  31  96 E7        30.12S VSB 3/4 WCI  26
Dickinson      FAIR      31  27  85 S9        30.02F WCI  23
Beach          FAIR      30  28  93 SE8       30.03F WCI  23
Crosby         CLOUDY    28  28 100 E8        30.06F FOG     WCI  20
Hettinger      FAIR      22  21  96 CALM      30.06F
Tioga          FOG       27  27 100 MISG      30.07S VSB<1/4
Watford City   FAIR      28  28 100 SE9       30.03S WCI  20
Bismarck       FAIR      26  25  96 NE6       30.12F WCI  19
Grand Forks    CLOUDY    25  14  63 NE7       30.26S WCI  17
Fargo          CLOUDY    30  23  75 NE6       30.24S WCI  24
Buffalo SD       N/A     32  26  78 S5        30.01F
Rapid City     FAIR      25  21  85 N5        30.04S
Intl Falls     FAIR      11   8  88 CALM      30.23R
Duluth         FAIR      21  11  65 NW10      30.21R WCI  10
Minneapolis    CLOUDY    32  27  81 CALM      30.27R
$$

Regional Reports...WY/ID/WA

CITY           SKY/WX    TMP DP  RH WIND       PRES   REMARKS
Buffalo WY     FAIR      38  18  44 SW5       30.02F
Cody           FAIR      45  22  40 SW8       30.07F
Gillette       FAIR      27  22  81 CALM      30.03F
Powell         FAIR      34  25  69 SE14      30.05S WCI  24
Yellowstone La   N/A     16  14  92 W3        30.23F
Boise          FAIR      37  29  72 CALM      30.10S
Couer d`Alene  FAIR      34  32  92 NE6       30.05F WCI  29
Idaho Falls    FAIR      30  24  78 N8        30.14F WCI  22
Salmon         CLOUDY    29  26  89 CALM      30.17F
Spokane        MOCLDY    32  30  92 S3        30.06F FOG
Seattle        MOCLDY    48  41  76 SE12      29.98F
$$

Regional Reports...Alberta

CITY           SKY/WX    TMP DP  RH WIND       PRES   REMARKS
Calgary        MOCLDY    45  23  42 SW7       29.75F
Cardston         N/A     46  27  46 SW9         N/A
Crowsnest Pass   N/A     37  32  81 NW16G26     N/A  WCI  28
Del Bonita       N/A     43  28  56 SW22        N/A
Edmonton       PTCLDY    27  27 100 SE5       29.74F
Fort McMurray  CLOUDY    18  12  79 SE13G21   29.81F WCI   4
High Level     LGT SNOW   9   7  92 SE7       29.68F WCI  -3
Lethbridge     PTCLDY    43  28  56 SW20G25   29.82S
Lloydminster   FOG       27  25  93 SE14G20   29.84F VSB 1/2 WCI  15
Medicine Hat   CLEAR     32  27  80 SW7       29.83F WCI  26
Milk River       N/A     41  27  56 W6          N/A
Peace River    CLOUDY    25  23  93 S3        29.64F
Pincher Creek  CLOUDY    41  28  60 W25G32    29.89F
Raymond          N/A     37  28  70 W10         N/A  WCI  30
Waterton Gate    N/A     45  30  57 SW26G38     N/A
Fort Smith NWT LGT SNOW  10   5  79 SE8G18    29.81F WCI  -1
$$

Regional Reports...Saskatchewan

CITY           SKY/WX    TMP DP  RH WIND       PRES   REMARKS
Assiniboia       N/A     25  23  93 SE8         N/A  WCI  16
Coronach         N/A     23  23 100 SE3         N/A
Cypress Hills    N/A     32  25  74 SW7         N/A  WCI  26
Estevan        FRZ RAIN  30  30 100 SE14G22   30.06F VSB 5/8 WCI  20
La Ronge         N/A     14   7  73 SE12        N/A  WCI   0
Moose Jaw        N/A     28  28 100 SE15        N/A  WCI  17
Prince Albert  MOCLDY    18  12  79 E10       30.09F WCI   6
Regina         FOG       27  27 100 SE13G21   30.03F VSB 1   WCI  16
Rockglen         N/A     27  25  93 S8          N/A  WCI  18
Saskatoon      CLOUDY    19  18  93 SE9       29.98F WCI   9
Swift Current  CLEAR     27  27 100 S14       29.88F WCI  15
Uranium City     N/A      3   0  85 E7          N/A  WCI  -9
Val Marie        N/A     16  12  86 NW2         N/A
$$



USA.gov is the U.S. government's official web portal to all federal, state and local government web resources and services.